FENGYUN 1C DEB, 30322

Orbit data source: Space-Track

FENGYUN 1C DEB, 30322 is space debris in SSO originally from a launch on Mon, 10 May 1999 UTC launched from the Taiyaun Space Center, China (TSC). Fengyun 1C debris stems from the Chinese weather satellite Fengyun-1C, which was intentionally destroyed by a Chinese anti-satellite missile in 2007. This event dramatically increased the amount of space debris, with thousands of trackable fragments posing hazards to satellites and human spaceflight. The Fengyun 1C debris cloud has become a focal point in discussions about space sustainability and the need for international regulations to prevent the creation of new debris.

Loading next visibility...
FENGYUN 1C DEB details
Identifier
30322, 1999-025AAK
Orbit
SSO
Last TLE update23 hours ago
Origin
Flag of CNCASC (CN / PRC)
ManufacturerUnknown
MissionSpacecraft
Bus & MotorUnknown
MassUnknown
Launch date (UTC)
1999-05-10 (26 years ago)
Launch vehicleUnknown
Launch site
Taiyaun Space Center, China (TSC)
Object type
Payload
Rocket body
Debris
Shape & HBRUnknown
Radar Cross SectionSmall (<0.1 m²)

Expand to show TLE details & history

TLE from 23 hours ago
0 FENGYUN 1C DEB
1 30322U 99025AAK 24355.60793963  .00002989  00000-0  17746-2 0  9992
2 30322  98.4273 232.8106 0128573 185.6588 174.3135 14.04145301911844
Epoch: 2024-12-20T14:35Z
Definitive object data (Epoch: 2024-12-20T14:35:25.984Z)
Latitude-0.00001°
Longitude-75.71868°
Altitude975.262 km
Speed7.317 km/s
True Right ascension15h 31m 14s
True Declination0° 00' 00"
Sunlit
Object was in daylight at TLE epoch
Visualization TLE readout
Latitude-14.74278°
Longitude102.95437°
Altitude794.02 km
Speed7.503 km/s
Apparent Right ascension02h 20m 38s
Apparent Declination-27° 49' 26"
Sunlit
Object is in full shadow
Visualization observer readout
Local Sidereal Time12:46:48
Azimuth294.79° NW
Elevation-67.184°
Doppler factor1
Orbital elements
Apogee altitude969.919 km
Perigee altitude783.365 km
Semi-major axis7,254.779 km
Eccentricity0.0128573
Inclination98.4273°
RAAN232.8106°
Arg. of periapsis185.6588°
True anomaly174.45719°
Mean anomaly174.3135°
Eccentric anomaly174.38557°
Mean motion3.51242 °/min
BSTAR0.0017746
Orbital period102.49 mins
Loading maneuver chart data...
Loading historical data...
Loading historical data...
Loading historical data...
Loading historical data...
Loading historical data...
Loading historical data...
Loading historical data...

FENGYUN 1C DEB Visibility forecast

Observer location: undefined°, undefined

Span
Click to sort rows by Start time (UTC) header in descending order
Start Az.
Max El. time (UTC)
Max El. Az.
Max El.
End time (UTC)
End Az.
7 mins2024-12-21 14:41:47.544Z103.67° ESE2024-12-21 14:44:47.544Z70.195° E19.881°2024-12-21 14:48:47.544Z22.341° NNE
10 mins2024-12-21 16:21:47.544Z183.697° SSW2024-12-21 16:25:47.544Z243.555° WSW40.79°2024-12-21 16:31:47.544Z338.975° N
9 mins2024-12-22 04:48:47.544Z17.532° NNE2024-12-22 04:52:47.544Z73.321° E43.985°2024-12-22 04:57:47.544Z188.504° SSW
|